Temp
5 6 6 6 6 6 6 6 5 5 5 5 4 4 4 4 4 4 4 4 3 3 3 3 2 2 2 2 2 2 2 2
6 6 6 6 6 6 6 5 5 5 5 5 4 5 4 4 4 4 3 3 3 3 3 2 2 2 1 1 1 2 2 2
6 5 5 5 6 6 5 5 5 5 4 4 4 4 4 4 4 3 3 3 2 2 2 2 2 1 1 1 1 1 1 1
5 5 5 5 5 5 5 5 5 4 4 4 4 4 4 4 3 3 3 2 2 1 1 1 1 1 1 1 1 1 1 1
5 5 5 5 5 5 4 4 4 4 4 4 4 3 3 3 3 2 2 1 1 1 0 0 1 1 1 1 1 1 1 1
4 4 4 5 5 4 4 4 4 4 3 3 3 3 3 2 2 2 1 1 0 0 0 0 0 1 1 1 1 1 1 1
4 3 4 3 4 4 4 3 3 3 3 3 3 3 2 2 1 1 1 0 -0 -0 -0 -0 -0 -0 -0 -0 -0 0 0 1
3 3 3 3 3 2 2 3 3 3 3 3 2 2 1 1 1 1 0 -0 -0 -1 -1 -1 -1 -1 -0 -1 -1 -0 -0 -0
3 3 3 2 2 2 1 1 2 2 2 2 2 1 1 1 0 -0 -1 -1 -1 -2 -2 -2 -2 -1 -1 -1 -1 -1 -1 -1
3 3 4 3 2 1 0 2 2 2 2 1 1 1 0 -0 -1 -1 -2 -2 -2 -2 -2 -2 -2 -2 -1 -1 -1 -2 -2 -2
3 3 3 2 1 1 1 1 1 1 1 0 -0 -0 -1 -1 -2 -1 -2 -2 -2 -2 -3 -3 -2 -2 -2 -2 -2 -3 -3 -3
4 3 2 1 1 1 1 1 1 0 -0 -0 -1 -1 -1 -2 -1 -1 -1 -1 -2 -2 -2 -3 -2 -2 -2 -2 -2 -3 -3 -3
2 2 1 1 1 1 1 0 0 -0 -1 -1 -1 -2 -2 -2 -2 -2 -2 -2 -2 -2 -2 -2 -3 -3 -3 -3 -3 -4 -4 -5
2 2 2 1 1 0 0 -1 -1 -2 -2 -2 -2 -2 -2 -2 -2 -2 -2 -2 -2 -3 -3 -4 -4 -4 -5 -6 -6 -6 -6 -6
2 2 1 0 -0 -1 -1 -1 -1 -1 -1 -1 -1 -1 -1 -1 -1 -1 -2 -2 -4 -5 -5 -5 -6 -7 -7 -8 -8 -8 -8 -8
2 1 1 0 -0 -0 -0 -0 -1 -1 -1 -1 -1 -1 -1 -2 -2 -4 -5 -5 -5 -6 -6 -7 -8 -8 -8 -8 -8 -9 -9 -8
2 1 1 0 0 -1 -1 -1 -2 -2 -2 -2 -2 -3 -3 -5 -5 -6 -6 -6 -7 -8 -8 -8 -8 -9 -9 -10 -9 -10 -9 -10
1 1 0 -0 -1 -1 -1 -2 -2 -2 -2 -3 -3 -4 -5 -5 -6 -6 -7 -7 -8 -8 -9 -9 -10 -10 -10 -11 -11 -10 -10 -10
1 0 -1 -1 -2 -2 -2 -2 -3 -3 -3 -4 -4 -5 -5 -6 -6 -6 -7 -8 -9 -10 -11 -11 -11 -11 -11 -11 -12 -12 -12 -13
0 -1 -2 -2 -2 -2 -2 -3 -3 -3 -3 -4 -4 -5 -5 -6 -7 -8 -8 -10 -11 -12 -11 -12 -12 -12 -12 -12 -12 -13 -13 -14
Height
3175 3177 3178 3179 3179 3180 3180 3181 3181 3182 3183 3183 3184 3183 3181 3180 3178 3178 3177 3175 3173 3171 3168 3166 3165 3163 3161 3162 3160 3157 3155 3153
3175 3177 3178 3178 3178 3179 3180 3180 3181 3181 3183 3183 3183 3181 3181 3179 3177 3176 3175 3174 3173 3172 3168 3167 3165 3162 3160 3159 3158 3156 3155 3153
3175 3176 3176 3177 3178 3179 3180 3180 3181 3182 3183 3183 3182 3179 3179 3179 3177 3176 3173 3171 3170 3170 3168 3166 3163 3160 3159 3159 3157 3155 3153 3152
3172 3173 3175 3176 3177 3178 3180 3181 3182 3183 3183 3183 3181 3179 3177 3175 3175 3174 3173 3171 3168 3167 3165 3163 3160 3158 3156 3155 3155 3154 3151 3150
3173 3173 3174 3175 3177 3178 3179 3181 3182 3181 3181 3181 3178 3177 3176 3173 3172 3171 3170 3168 3166 3164 3162 3160 3158 3156 3154 3152 3150 3150 3148 3146
3173 3175 3175 3175 3177 3177 3179 3180 3181 3181 3179 3178 3177 3175 3173 3172 3170 3168 3166 3164 3162 3160 3158 3155 3154 3152 3150 3147 3145 3144 3142 3140
3173 3175 3175 3175 3175 3178 3177 3178 3178 3179 3177 3175 3174 3172 3170 3169 3166 3164 3162 3160 3158 3155 3153 3151 3149 3147 3145 3143 3139 3137 3135 3132
3172 3173 3173 3173 3174 3175 3175 3176 3176 3176 3174 3173 3171 3169 3167 3166 3163 3159 3157 3156 3154 3151 3149 3146 3143 3140 3139 3137 3134 3132 3128 3124
3171 3170 3169 3169 3169 3170 3171 3173 3173 3171 3170 3168 3166 3165 3163 3161 3158 3156 3154 3151 3148 3145 3141 3139 3136 3133 3131 3129 3127 3126 3122 3118
3168 3166 3168 3167 3165 3166 3163 3168 3168 3168 3166 3164 3163 3161 3159 3157 3154 3151 3147 3143 3140 3137 3133 3130 3127 3123 3122 3120 3118 3117 3112 3109
3164 3163 3163 3162 3159 3159 3160 3162 3164 3164 3162 3161 3158 3156 3153 3150 3147 3142 3140 3136 3131 3128 3124 3119 3114 3111 3109 3106 3106 3104 3101 3098
3160 3160 3158 3152 3154 3157 3157 3160 3160 3159 3158 3156 3153 3149 3144 3143 3140 3137 3133 3129 3124 3119 3114 3111 3105 3100 3096 3094 3092 3091 3089 3086
3152 3158 3155 3157 3155 3154 3156 3158 3157 3156 3153 3150 3146 3145 3141 3137 3133 3129 3124 3119 3115 3109 3105 3101 3097 3092 3086 3083 3081 3078 3077 3076
3156 3157 3156 3155 3154 3154 3155 3155 3152 3151 3148 3146 3143 3139 3134 3130 3125 3120 3115 3110 3104 3098 3092 3087 3083 3078 3073 3068 3064 3064 3062 3062
3156 3156 3155 3153 3152 3152 3152 3151 3150 3147 3143 3139 3135 3131 3126 3120 3114 3108 3102 3096 3091 3086 3080 3075 3071 3068 3063 3060 3053 3048 3043 3044
3154 3153 3153 3153 3153 3152 3149 3146 3142 3138 3134 3130 3125 3120 3114 3108 3102 3097 3091 3085 3079 3073 3068 3064 3060 3055 3052 3049 3044 3037 3031 3024
3154 3152 3151 3150 3147 3144 3141 3138 3135 3130 3125 3120 3114 3109 3103 3097 3091 3085 3079 3074 3068 3063 3058 3054 3049 3046 3041 3038 3036 3031 3025 3017
3150 3148 3146 3143 3141 3139 3135 3131 3126 3121 3116 3110 3104 3099 3094 3087 3082 3076 3071 3065 3060 3054 3049 3045 3041 3036 3032 3027 3022 3018 3014 3007
3146 3144 3141 3138 3136 3132 3128 3123 3118 3113 3108 3102 3096 3091 3086 3080 3074 3068 3061 3055 3049 3044 3039 3035 3031 3027 3023 3020 3014 3009 3002 2997
3140 3138 3135 3133 3129 3125 3119 3114 3109 3104 3099 3093 3088 3081 3075 3069 3062 3056 3050 3045 3041 3036 3032 3026 3022 3018 3014 3009 3004 2998 2992 2988
Wind_Speed
10 8 5 3 5 3 3 4 5 6 8 10 10 12 13 15 16 16 16 17 19 21 20 20 19 19 17 15 13 13 12 12
9 5 3 4 2 3 4 5 7 8 8 8 8 10 13 15 18 19 20 20 21 20 18 18 19 19 19 17 15 14 14 12
6 5 3 2 3 5 5 8 7 6 5 5 8 12 15 17 18 20 21 22 22 22 20 18 20 22 20 18 18 16 14 14
7 7 5 6 7 6 7 7 6 4 5 9 13 16 18 19 19 21 23 24 22 22 21 19 20 23 25 24 21 19 18 17
6 6 7 8 8 8 6 4 2 4 8 12 15 17 18 18 20 21 24 26 25 23 22 22 23 26 30 30 29 28 26 23
10 8 8 7 7 6 2 1 3 8 11 13 14 16 18 20 21 21 24 28 29 27 26 25 27 29 31 32 35 34 33 32
9 9 8 7 6 3 2 4 5 12 13 14 15 17 18 21 23 24 26 30 30 30 31 33 34 34 33 33 36 36 36 35
2 4 4 4 1 3 5 6 9 14 15 15 17 18 19 23 29 29 30 34 34 34 38 37 40 39 38 40 40 38 36 35
5 10 8 9 8 4 3 6 16 17 16 17 19 20 23 27 30 30 33 34 35 40 43 44 45 45 46 44 42 39 41 42
15 18 14 14 13 12 15 15 18 20 20 21 20 23 28 30 33 33 35 34 35 44 47 48 50 51 50 48 47 45 46 46
21 24 24 21 10 20 11 16 20 20 22 21 22 28 32 28 39 29 36 41 45 47 50 53 55 56 56 55 48 43 43 43
24 29 30 23 19 12 11 14 19 21 23 23 29 36 30 38 36 40 46 49 50 53 54 55 57 58 56 56 53 47 45 44
32 23 20 8 15 13 14 16 20 22 24 31 28 35 37 39 41 43 47 49 51 54 56 57 56 55 56 56 55 52 49 44
12 11 13 13 11 11 12 15 20 24 26 29 30 32 35 37 40 44 47 50 53 56 56 57 59 60 57 54 52 53 52 48
8 10 12 13 12 12 14 15 18 24 28 30 32 36 40 45 49 52 54 55 57 58 57 54 54 47 44 43 45 48 48 46
11 8 12 12 14 17 21 25 29 35 37 39 41 45 48 51 52 54 54 55 56 56 52 48 45 45 45 42 41 44 48 54
13 11 13 20 23 28 31 33 38 39 39 42 44 47 47 48 51 52 52 52 51 48 48 49 50 51 47 46 42 44 47 52
17 19 20 24 26 31 34 39 39 39 41 44 45 45 45 48 48 48 48 49 50 50 47 44 43 45 47 46 49 48 45 46
22 22 22 25 29 34 38 39 39 40 40 41 42 44 45 46 47 50 51 51 51 47 44 43 45 43 45 41 42 44 44 43
25 25 26 27 33 38 41 40 40 42 44 46 46 48 50 50 51 53 53 53 50 46 47 36 33 32 34 38 40 42 41 37
Wind_Direction
157 159 178 243 276 238 158 124 100 94 86 66 48 40 31 24 14 6 2 359 359 357 356 357 358 1 2 5 1 350 336 316
160 179 240 273 237 163 139 118 107 95 73 49 35 20 18 17 13 4 356 354 353 353 350 349 349 347 347 349 348 346 342 337
184 211 214 190 153 125 127 116 102 84 55 17 4 7 4 0 360 354 351 347 345 342 340 336 340 341 340 339 339 336 330 326
221 219 176 145 131 130 128 104 91 39 353 345 352 353 349 343 340 343 342 342 343 339 334 329 328 332 332 331 327 325 326 322
114 131 147 143 122 120 115 79 55 340 332 339 341 336 335 332 328 334 339 338 336 330 323 319 316 318 320 320 321 317 310 307
94 84 91 117 117 128 130 294 317 323 323 324 328 323 325 324 323 326 333 332 328 325 321 319 318 317 316 310 309 313 307 299
84 78 81 83 98 44 250 248 311 322 314 312 313 314 317 317 319 316 325 328 323 319 316 314 315 315 313 311 309 307 304 302
167 139 122 152 137 323 293 280 287 302 302 296 304 309 313 316 323 318 315 316 314 311 312 311 312 312 313 311 309 305 303 302
241 242 213 206 214 269 250 320 274 298 298 294 297 308 315 319 314 310 308 305 306 310 310 309 308 309 309 308 306 302 299 299
257 267 253 236 230 264 339 266 281 288 297 296 302 310 312 308 306 299 308 296 304 307 304 303 303 304 304 302 301 299 296 293
269 271 266 245 271 320 285 256 282 287 287 295 298 308 296 299 303 288 299 300 304 301 300 301 303 304 303 302 300 298 294 291
266 269 266 276 308 325 323 300 285 282 286 295 305 296 300 307 299 303 300 299 299 299 298 299 300 301 303 303 300 296 293 291
265 283 309 323 336 334 310 297 292 289 295 296 297 296 301 298 297 295 294 294 293 292 294 296 295 298 301 300 296 294 294 293
294 290 307 319 328 311 299 284 284 290 296 301 303 301 297 297 296 294 293 293 297 298 301 300 298 302 304 302 300 296 294 293
300 305 323 334 334 316 307 308 305 307 310 308 308 307 307 305 305 306 306 306 305 304 303 304 306 302 297 298 301 302 302 296
353 2 356 337 321 318 320 323 320 320 318 317 314 311 311 310 309 308 306 305 306 306 305 304 302 301 302 304 307 308 307 303
332 313 320 336 336 339 334 327 323 318 316 313 312 311 310 306 306 306 306 305 305 306 305 305 304 301 303 302 300 301 300 298
304 308 313 332 336 330 327 324 321 317 314 311 310 309 307 305 305 304 303 302 304 305 306 307 305 308 304 302 302 298 294 297
307 308 320 327 325 319 319 318 315 313 311 310 307 305 304 303 303 305 308 310 311 311 304 303 303 306 301 301 297 299 300 301
306 314 320 316 315 320 318 316 315 313 312 311 309 307 307 309 311 313 315 315 313 307 304 306 300 302 302 302 302 304 303 301